This demonstration page uses our WeatherBlox Daily Observations layout. Learn more.

Left ArrowRight Arrow

36.17497, -115.13722

Hourly Observations for May 12, 2016

Temp ( °F °C ) Dew Point ( °F °C ) Humidity (%) Winds ( mph kmh ) Pressure ( in mb ) Visibility ( mi km ) Precip ( " mm )
12:53 am 00:53 Clear 71 21.7 35 1.7 27 27 N N/A 30.06 1018 10 16 N/A
1:53 am 01:53 Clear 68 20 36 2.2 31 31 N N/A 30.06 1018 10 16 N/A
2:53 am 02:53 Clear 67 19.4 37 2.8 33 33 W 3 6 30.05 1018 10 16 N/A
3:53 am 03:53 Clear 65 18.3 39 3.9 39 39 NW 3 6 30.06 1018 10 16 N/A
4:53 am 04:53 Clear 65 18.3 35 1.7 33 33 WNW 7 11 30.08 1019 10 16 N/A
5:53 am 05:53 Sunny 66 18.9 33 0.6 29 29 W 5 7 30.09 1019 10 16 N/A
6:53 am 06:53 Sunny 67 19.4 35 1.7 31 31 N N/A 30.11 1020 10 16 N/A
7:53 am 07:53 Sunny 73 22.8 34 1.1 24 24 N N/A 30.11 1020 10 16 N/A
8:53 am 08:53 Sunny 76 24.4 30 -1.1 18 18 N N/A 30.12 1020 10 16 N/A
9:53 am 09:53 Sunny 78 25.6 29 -1.7 16 16 SE 3 6 30.12 1020 10 16 N/A
10:53 am 10:53 Sunny 81 27.2 27 -2.8 14 14 N N/A 30.11 1020 10 16 N/A
11:53 am 11:53 Sunny 84 28.9 25 -3.9 11 11 VRB 3 6 30.09 1019 10 16 N/A
12:53 pm 12:53 Sunny 87 30.6 23 -5 9 9 undefined N/A 30.07 1018 10 16 N/A
1:53 pm 13:53 Sunny 87 30.6 23 -5 9 9 VRB 3 6 30.05 1018 10 16 N/A
2:53 pm 14:53 Sunny 90 32.2 24 -4.4 9 9 N 6 9 30.02 1017 10 16 N/A
3:53 pm 15:53 Sunny 90 32.2 23 -5 9 9 NE 5 7 30.00 1016 10 16 N/A
4:53 pm 16:53 Sunny 90 32.2 22 -5.6 8 8 ESE 6 9 29.98 1015 10 16 N/A
5:53 pm 17:53 Sunny 90 32.2 22 -5.6 8 8 VRB 3 6 29.97 1015 10 16 N/A
6:53 pm 18:53 Sunny 89 31.7 21 -6.1 8 8 E 6 9 29.96 1015 10 16 N/A
7:53 pm 19:53 Clear 87 30.6 22 -5.6 9 9 ENE 5 7 29.96 1015 10 16 N/A
8:53 pm 20:53 Clear 85 29.4 26 -3.3 12 12 N N/A 29.97 1015 10 16 N/A
9:53 pm 21:53 Clear 79 26.1 33 0.6 19 19 NW 7 11 29.99 1016 10 16 N/A
10:53 pm 22:53 Clear 77 25 31 -0.6 18 18 NW 7 11 29.98 1015 10 16 N/A
11:53 pm 23:53 Clear 74 23.3 33 0.6 22 22 NNW 7 11 29.98 1015 10 16 N/A

Powered by AerisWeather